Location: Newark
(41.6500°N, 71.4833°W)
Time: 04:58:15
(UTC+00:00)

Transit 2A Rocket - All Passes

Search period start: 26 January 2020 00:00
Search period end: 05 February 2020 00:00
Orbit: 593 x 910 km, 66.7° (Epoch: 25 January)

Date Brightness Start Highest point End Pass type
(mag) Time Alt. Az. Time Alt. Az. Time Alt. Az.
26 Jan - 08:27:03 10° SE 08:29:35 15° ESE 08:32:07 10° ENE visible
26 Jan - 10:07:29 10° SW 10:11:40 49° NW 10:15:53 10° NNE visible
26 Jan - 17:07:50 10° N 17:11:17 19° NE 17:14:54 10° E daylight
26 Jan - 18:49:19 10° NW 18:54:14 69° WSW 18:59:36 10° SSE daylight
27 Jan - 09:24:47 10° SSW 09:29:05 87° SE 09:33:26 10° NNE visible
27 Jan - 11:10:26 10° WNW 11:12:18 12° NW 11:14:10 10° NNW visible
27 Jan - 16:26:23 10° NNE 16:28:21 12° NE 16:30:22 10° ENE daylight
27 Jan - 18:06:47 10° NNW 18:11:42 70° ENE 18:17:03 10° SE daylight
27 Jan - 19:50:50 10° WNW 19:53:49 16° WSW 19:56:55 10° SW daylight
28 Jan - 08:42:32 10° S 08:46:39 44° ESE 08:50:46 10° NE visible
28 Jan - 10:26:11 10° W 10:29:23 20° NW 10:32:38 10° N visible
28 Jan - 17:24:26 10° NNW 17:29:04 41° NE 17:34:06 10° SE daylight
28 Jan - 19:07:17 10° NW 19:11:30 27° WSW 19:16:01 10° SSW daylight
29 Jan - 08:00:52 10° SSE 08:04:18 23° ESE 08:07:43 10° ENE visible
29 Jan - 09:42:43 10° WSW 09:46:37 33° NW 09:50:35 10° NNE visible
29 Jan - 16:42:17 10° N 16:46:21 25° NE 16:50:42 10° ESE daylight
29 Jan - 18:24:18 10° NW 18:29:05 48° WSW 18:34:18 10° S daylight
30 Jan - 07:20:21 10° SE 07:22:03 12° ESE 07:23:43 10° E night (unlit)
30 Jan - 08:59:43 10° SW 09:03:58 61° WNW 09:08:17 10° NNE visible
30 Jan - 16:00:25 10° N 16:03:31 16° NE 16:06:46 10° E daylight
30 Jan - 17:41:38 10° NNW 17:46:36 83° WSW 17:52:03 10° SSE daylight
30 Jan - 19:27:45 10° W 19:28:32 10° WSW 19:29:20 10° WSW daylight
31 Jan - 08:17:11 10° SSW 08:21:27 70° ESE 08:25:47 10° NE visible
31 Jan - 10:02:03 10° WNW 10:04:30 15° NW 10:07:00 10° N visible
31 Jan - 15:19:30 10° NNE 15:20:33 11° NE 15:21:36 10° NE daylight
31 Jan - 16:59:10 10° NNW 17:04:03 58° ENE 17:09:22 10° SE daylight
31 Jan - 18:42:42 10° WNW 18:46:17 19° WSW 18:50:03 10° SSW daylight
01 Feb - 07:35:07 10° S 07:39:02 35° ESE 07:42:59 10° NE night (unlit)
01 Feb - 09:18:09 10° WSW 09:21:38 24° NW 09:25:12 10° N visible
01 Feb - 16:16:53 10° NNW 16:21:24 35° NE 16:26:17 10° ESE daylight
01 Feb - 17:59:24 10° NW 18:03:56 33° WSW 18:08:47 10° S daylight
02 Feb - 06:53:43 10° SSE 06:56:43 19° ESE 06:59:44 10° ENE night (unlit)
02 Feb - 08:34:51 10° SW 08:38:54 41° NW 08:43:03 10° NNE visible
02 Feb - 15:34:48 10° N 15:38:38 22° NE 15:42:43 10° E daylight
02 Feb - 17:16:33 10° NW 17:21:29 58° WSW 17:26:52 10° SSE daylight
03 Feb - 07:52:01 10° SW 07:56:18 77° WNW 08:00:40 10° NNE visible
03 Feb - 09:38:32 10° NW 09:39:40 11° NW 09:40:49 10° NNW visible
03 Feb - 14:53:04 10° N 14:55:45 14° NE 14:58:32 10° ENE daylight
03 Feb - 16:33:58 10° NNW 16:38:59 82° ENE 16:44:27 10° SSE daylight
03 Feb - 18:18:37 10° WNW 18:21:01 13° WSW 18:23:30 10° SW daylight
04 Feb - 07:09:37 10° SSW 07:13:49 55° ESE 07:18:05 10° NE night (unlit)
04 Feb - 08:53:48 10° W 08:56:43 17° NW 08:59:41 10° N visible
04 Feb - 15:51:34 10° NNW 15:56:23 48° NE 16:01:38 10° SE daylight
04 Feb - 17:34:41 10° WNW 17:38:43 24° WSW 17:43:01 10° SSW daylight
